owner,sensor,date,latitude,longitude,air_pressure(mBar),qcFlag 
TABS,ioos:station:wmo:42043:1,2008-09-01T00:00:00Z,28.9818,-94.9186,1008.16,11111222 
TABS,ioos:station:wmo:42043:1,2008-09-01T00:30:00Z,28.9818,-94.9186,1008.14,11111222 
TABS,ioos:station:wmo:42043:1,2008-09-01T01:00:00Z,28.9818,-94.9186,1008.09,11111222 
TABS,ioos:station:wmo:42043:1,2008-09-01T01:30:00Z,28.9818,-94.9186,1008.44,11111222 
TABS,ioos:station:wmo:42043:1,2008-09-01T02:00:00Z,28.9818,-94.9186,1008.53,11111222 
TABS,ioos:station:wmo:42043:1,2008-09-01T02:30:00Z,28.9818,-94.9186,1008.7,11111222 
TABS,ioos:station:wmo:42043:1,2008-09-01T03:00:00Z,28.9818,-94.9186,1008.72,11111222 
TABS,ioos:station:wmo:42043:1,2008-09-01T03:30:00Z,28.9818,-94.9186,1008.79,11111222 
TABS,ioos:station:wmo:42043:1,2008-09-01T04:00:00Z,28.9818,-94.9186,1008.7,11111222 
TABS,ioos:station:wmo:42043:1,2008-09-01T04:30:00Z,28.9818,-94.9186,1008.77,11111222 
TABS,ioos:station:wmo:42043:1,2008-09-01T05:00:00Z,28.9818,-94.9186,1008.5,11111222 
TABS,ioos:station:wmo:42043:1,2008-09-01T05:30:00Z,28.9818,-94.9186,1008.24,11111222 
TABS,ioos:station:wmo:42043:1,2008-09-01T06:00:00Z,28.9818,-94.9186,1007.88,11111222 
TABS,ioos:station:wmo:42043:1,2008-09-01T06:30:00Z,28.9818,-94.9186,1007.52,11111222 
TABS,ioos:station:wmo:42043:1,2008-09-01T07:00:00Z,28.9818,-94.9186,1007.29,11111222 
TABS,ioos:station:wmo:42043:1,2008-09-01T07:30:00Z,28.9818,-94.9186,1007.13,11111222 
TABS,ioos:station:wmo:42043:1,2008-09-01T08:00:00Z,28.9818,-94.9186,1006.85,11111222 
TABS,ioos:station:wmo:42043:1,2008-09-01T08:30:00Z,28.9818,-94.9186,1006.66,11111222 
TABS,ioos:station:wmo:42043:1,2008-09-01T09:00:00Z,28.9818,-94.9186,1006.35,11111222 
TABS,ioos:station:wmo:42043:1,2008-09-01T09:30:00Z,28.9818,-94.9186,1006.15,11111222 
TABS,ioos:station:wmo:42043:1,2008-09-01T10:00:00Z,28.9818,-94.9186,1005.91,11111222 
TABS,ioos:station:wmo:42043:1,2008-09-01T10:30:00Z,28.9818,-94.9186,1005.65,11111222 
TABS,ioos:station:wmo:42043:1,2008-09-01T11:00:00Z,28.9818,-94.9186,1005.73,11111222 
TABS,ioos:station:wmo:42043:1,2008-09-01T11:30:00Z,28.9818,-94.9186,1005.59,11111222 
TABS,ioos:station:wmo:42043:1,2008-09-01T12:00:00Z,28.9818,-94.9186,1005.65,11111222 
TABS,ioos:station:wmo:42043:1,2008-09-01T12:30:00Z,28.9818,-94.9186,1006.06,11111222 
TABS,ioos:station:wmo:42043:1,2008-09-01T13:00:00Z,28.9818,-94.9186,1006.43,11111222 
TABS,ioos:station:wmo:42043:1,2008-09-01T13:30:00Z,28.9818,-94.9186,1006.13,11111222 
TABS,ioos:station:wmo:42043:1,2008-09-01T14:00:00Z,28.9818,-94.9186,1006.03,11111222 
TABS,ioos:station:wmo:42043:1,2008-09-01T14:30:00Z,28.9818,-94.9186,1006.01,11111222 
TABS,ioos:station:wmo:42043:1,2008-09-01T15:00:00Z,28.9818,-94.9186,1005.57,11111222 
TABS,ioos:station:wmo:42043:1,2008-09-01T15:30:00Z,28.9818,-94.9186,1005.72,11111222 
TABS,ioos:station:wmo:42043:1,2008-09-01T16:00:00Z,28.9818,-94.9186,1005.62,11111222 
TABS,ioos:station:wmo:42043:1,2008-09-01T16:30:00Z,28.9818,-94.9186,1005.57,11111222 
TABS,ioos:station:wmo:42043:1,2008-09-01T17:00:00Z,28.9818,-94.9186,1005.36,11111222 
TABS,ioos:station:wmo:42043:1,2008-09-01T17:30:00Z,28.9818,-94.9186,1004.75,11111222 
TABS,ioos:station:wmo:42043:1,2008-09-01T18:00:00Z,28.9818,-94.9186,1004.17,11111222 
TABS,ioos:station:wmo:42043:1,2008-09-01T18:30:00Z,28.9818,-94.9186,1003.56,11111222 
TABS,ioos:station:wmo:42043:1,2008-09-01T19:00:00Z,28.9818,-94.9186,1002.86,11111222 
TABS,ioos:station:wmo:42043:1,2008-09-01T19:30:00Z,28.9818,-94.9186,1002.91,11111222 
TABS,ioos:station:wmo:42043:1,2008-09-01T20:00:00Z,28.9818,-94.9186,1002.62,11111222 
TABS,ioos:station:wmo:42043:1,2008-09-01T20:30:00Z,28.9818,-94.9186,1002.28,11111222 
TABS,ioos:station:wmo:42043:1,2008-09-01T21:00:00Z,28.9818,-94.9186,1002.31,11111222 
TABS,ioos:station:wmo:42043:1,2008-09-01T21:30:00Z,28.9818,-94.9186,1002.25,11111222 
TABS,ioos:station:wmo:42043:1,2008-09-01T22:00:00Z,28.9818,-94.9186,1002.16,11111222 
TABS,ioos:station:wmo:42043:1,2008-09-01T22:30:00Z,28.9818,-94.9186,1001.85,11111222 
TABS,ioos:station:wmo:42043:1,2008-09-01T23:00:00Z,28.9818,-94.9186,1001.8,11111222 
TABS,ioos:station:wmo:42043:1,2008-09-01T23:30:00Z,28.9818,-94.9186,1001.89,11111222 
TABS,ioos:station:wmo:42043:1,2008-09-02T00:00:00Z,28.9818,-94.9186,1002.03,11111222 
TABS,ioos:station:wmo:42043:1,2008-09-02T00:30:00Z,28.9818,-94.9186,1002.17,11111222 
TABS,ioos:station:wmo:42043:1,2008-09-02T01:00:00Z,28.9818,-94.9186,1002.39,11111222 
TABS,ioos:station:wmo:42043:1,2008-09-02T01:30:00Z,28.9818,-94.9186,1002.62,11111222 
TABS,ioos:station:wmo:42043:1,2008-09-02T02:00:00Z,28.9818,-94.9186,1002.82,11111222 
TABS,ioos:station:wmo:42043:1,2008-09-02T02:30:00Z,28.9818,-94.9186,1002.96,11111222 
TABS,ioos:station:wmo:42043:1,2008-09-02T03:00:00Z,28.9818,-94.9186,1003.22,11111222 
TABS,ioos:station:wmo:42043:1,2008-09-02T03:30:00Z,28.9818,-94.9186,1003.31,11111222 
TABS,ioos:station:wmo:42043:1,2008-09-02T04:00:00Z,28.9818,-94.9186,1003.39,11111222 
TABS,ioos:station:wmo:42043:1,2008-09-02T04:30:00Z,28.9818,-94.9186,1003.32,11111222 
TABS,ioos:station:wmo:42043:1,2008-09-02T05:00:00Z,28.9818,-94.9186,1003.34,11111222 
TABS,ioos:station:wmo:42043:1,2008-09-02T05:30:00Z,28.9818,-94.9186,1003.37,11111222 
TABS,ioos:station:wmo:42043:1,2008-09-02T06:00:00Z,28.9818,-94.9186,1003.4,11111222 
TABS,ioos:station:wmo:42043:1,2008-09-02T06:30:00Z,28.9818,-94.9186,1003.37,11111222 
TABS,ioos:station:wmo:42043:1,2008-09-02T07:00:00Z,28.9818,-94.9186,1003.35,11111222 
TABS,ioos:station:wmo:42043:1,2008-09-02T07:30:00Z,28.9818,-94.9186,1003.39,11111222 
TABS,ioos:station:wmo:42043:1,2008-09-02T08:00:00Z,28.9818,-94.9186,1003.29,11111222 
TABS,ioos:station:wmo:42043:1,2008-09-02T08:30:00Z,28.9818,-94.9186,1003.39,11111222 
TABS,ioos:station:wmo:42043:1,2008-09-02T09:00:00Z,28.9818,-94.9186,1003.4,11111222 
TABS,ioos:station:wmo:42043:1,2008-09-02T09:30:00Z,28.9818,-94.9186,1003.7,11111222 
TABS,ioos:station:wmo:42043:1,2008-09-02T10:00:00Z,28.9818,-94.9186,1003.74,11111222 
TABS,ioos:station:wmo:42043:1,2008-09-02T10:30:00Z,28.9818,-94.9186,1003.8,11111222 
TABS,ioos:station:wmo:42043:1,2008-09-02T11:00:00Z,28.9818,-94.9186,1004.18,11111222 
TABS,ioos:station:wmo:42043:1,2008-09-02T11:30:00Z,28.9818,-94.9186,1004.72,11111222 
TABS,ioos:station:wmo:42043:1,2008-09-02T12:00:00Z,28.9818,-94.9186,1005.1,11111222 
TABS,ioos:station:wmo:42043:1,2008-09-02T12:30:00Z,28.9818,-94.9186,1005.44,11111222 
TABS,ioos:station:wmo:42043:1,2008-09-02T13:00:00Z,28.9818,-94.9186,1005.71,11111222 
TABS,ioos:station:wmo:42043:1,2008-09-02T13:30:00Z,28.9818,-94.9186,1006.0,11111222 
TABS,ioos:station:wmo:42043:1,2008-09-02T14:00:00Z,28.9818,-94.9186,1006.25,11111222 
TABS,ioos:station:wmo:42043:1,2008-09-02T14:30:00Z,28.9818,-94.9186,1006.31,11111222 
TABS,ioos:station:wmo:42043:1,2008-09-02T15:00:00Z,28.9818,-94.9186,1006.62,11111222 
TABS,ioos:station:wmo:42043:1,2008-09-02T15:30:00Z,28.9818,-94.9186,1006.77,11111222 
TABS,ioos:station:wmo:42043:1,2008-09-02T16:00:00Z,28.9818,-94.9186,1006.85,11111222 
TABS,ioos:station:wmo:42043:1,2008-09-02T16:30:00Z,28.9818,-94.9186,1006.96,11111222 
TABS,ioos:station:wmo:42043:1,2008-09-02T17:00:00Z,28.9818,-94.9186,1006.84,11111222 
TABS,ioos:station:wmo:42043:1,2008-09-02T17:30:00Z,28.9818,-94.9186,1006.55,11111222 
TABS,ioos:station:wmo:42043:1,2008-09-02T18:00:00Z,28.9818,-94.9186,1006.2,11111222 
TABS,ioos:station:wmo:42043:1,2008-09-02T18:30:00Z,28.9818,-94.9186,1006.08,11111222 
TABS,ioos:station:wmo:42043:1,2008-09-02T19:00:00Z,28.9818,-94.9186,1005.93,11111222 
TABS,ioos:station:wmo:42043:1,2008-09-02T19:30:00Z,28.9818,-94.9186,1005.68,11111222 
TABS,ioos:station:wmo:42043:1,2008-09-02T20:00:00Z,28.9818,-94.9186,1005.63,11111222 
TABS,ioos:station:wmo:42043:1,2008-09-02T20:30:00Z,28.9818,-94.9186,1005.31,11111222 
TABS,ioos:station:wmo:42043:1,2008-09-02T21:00:00Z,28.9818,-94.9186,1004.92,11111222 
TABS,ioos:station:wmo:42043:1,2008-09-02T21:30:00Z,28.9818,-94.9186,1004.97,11111222 
TABS,ioos:station:wmo:42043:1,2008-09-02T22:00:00Z,28.9818,-94.9186,1004.66,11111222 
TABS,ioos:station:wmo:42043:1,2008-09-02T22:30:00Z,28.9818,-94.9186,1004.53,11111222 
TABS,ioos:station:wmo:42043:1,2008-09-02T23:00:00Z,28.9818,-94.9186,1004.58,11111222 
TABS,ioos:station:wmo:42043:1,2008-09-02T23:30:00Z,28.9818,-94.9186,1004.41,11111222 
TABS,ioos:station:wmo:42043:1,2008-09-03T00:00:00Z,28.9818,-94.9186,1004.63,11111222 
TABS,ioos:station:wmo:42043:1,2008-09-03T00:30:00Z,28.9818,-94.9186,1004.64,11111222 
TABS,ioos:station:wmo:42043:1,2008-09-03T01:00:00Z,28.9818,-94.9186,1004.83,11111222 
TABS,ioos:station:wmo:42043:1,2008-09-03T01:30:00Z,28.9818,-94.9186,1005.45,11111222 
TABS,ioos:station:wmo:42043:1,2008-09-03T02:00:00Z,28.9818,-94.9186,1005.74,11111222 
TABS,ioos:station:wmo:42043:1,2008-09-03T02:30:00Z,28.9818,-94.9186,1006.03,11111222 
TABS,ioos:station:wmo:42043:1,2008-09-03T03:00:00Z,28.9818,-94.9186,1006.15,11111222 
TABS,ioos:station:wmo:42043:1,2008-09-03T03:30:00Z,28.9818,-94.9186,1006.3,11111222 
TABS,ioos:station:wmo:42043:1,2008-09-03T04:00:00Z,28.9818,-94.9186,1006.49,11111222 
TABS,ioos:station:wmo:42043:1,2008-09-03T04:30:00Z,28.9818,-94.9186,1006.46,11111222 
TABS,ioos:station:wmo:42043:1,2008-09-03T05:00:00Z,28.9818,-94.9186,1006.56,11111222 
TABS,ioos:station:wmo:42043:1,2008-09-03T05:30:00Z,28.9818,-94.9186,1006.5,11111222 
TABS,ioos:station:wmo:42043:1,2008-09-03T06:00:00Z,28.9818,-94.9186,1006.35,11111222 
TABS,ioos:station:wmo:42043:1,2008-09-03T06:30:00Z,28.9818,-94.9186,1006.33,11111222 
TABS,ioos:station:wmo:42043:1,2008-09-03T07:00:00Z,28.9818,-94.9186,1006.15,11111222 
TABS,ioos:station:wmo:42043:1,2008-09-03T07:30:00Z,28.9818,-94.9186,1006.3,11111222 
TABS,ioos:station:wmo:42043:1,2008-09-03T08:00:00Z,28.9818,-94.9186,1006.2,11111222 
TABS,ioos:station:wmo:42043:1,2008-09-03T08:30:00Z,28.9818,-94.9186,1006.32,11111222 
TABS,ioos:station:wmo:42043:1,2008-09-03T09:00:00Z,28.9818,-94.9186,1006.48,11111222 
TABS,ioos:station:wmo:42043:1,2008-09-03T09:30:00Z,28.9818,-94.9186,1006.34,11111222 
TABS,ioos:station:wmo:42043:1,2008-09-03T10:00:00Z,28.9818,-94.9186,1006.3,11111222 
TABS,ioos:station:wmo:42043:1,2008-09-03T10:30:00Z,28.9818,-94.9186,1006.45,11111222 
TABS,ioos:station:wmo:42043:1,2008-09-03T11:00:00Z,28.9818,-94.9186,1006.56,11111222 
TABS,ioos:station:wmo:42043:1,2008-09-03T11:30:00Z,28.9818,-94.9186,1006.93,11111222 
TABS,ioos:station:wmo:42043:1,2008-09-03T12:00:00Z,28.9818,-94.9186,1007.16,11111222 
TABS,ioos:station:wmo:42043:1,2008-09-03T12:30:00Z,28.9818,-94.9186,1007.42,11111222 
TABS,ioos:station:wmo:42043:1,2008-09-03T13:00:00Z,28.9818,-94.9186,1007.66,11111222 
TABS,ioos:station:wmo:42043:1,2008-09-03T13:30:00Z,28.9818,-94.9186,1007.76,11111222 
TABS,ioos:station:wmo:42043:1,2008-09-03T14:00:00Z,28.9818,-94.9186,1007.74,11111222 
TABS,ioos:station:wmo:42043:1,2008-09-03T14:30:00Z,28.9818,-94.9186,1007.9,11111222 
TABS,ioos:station:wmo:42043:1,2008-09-03T15:00:00Z,28.9818,-94.9186,1008.02,11111222 
TABS,ioos:station:wmo:42043:1,2008-09-03T15:30:00Z,28.9818,-94.9186,1008.2,11111222 
TABS,ioos:station:wmo:42043:1,2008-09-03T16:00:00Z,28.9818,-94.9186,1008.17,11111222 
TABS,ioos:station:wmo:42043:1,2008-09-03T16:30:00Z,28.9818,-94.9186,1007.99,11111222 
TABS,ioos:station:wmo:42043:1,2008-09-03T17:00:00Z,28.9818,-94.9186,1007.79,11111222 
TABS,ioos:station:wmo:42043:1,2008-09-03T17:30:00Z,28.9818,-94.9186,1007.55,11111222 
TABS,ioos:station:wmo:42043:1,2008-09-03T18:00:00Z,28.9818,-94.9186,1007.31,11111222 
TABS,ioos:station:wmo:42043:1,2008-09-03T18:30:00Z,28.9818,-94.9186,1007.1,11111222 
TABS,ioos:station:wmo:42043:1,2008-09-03T19:00:00Z,28.9818,-94.9186,1006.87,11111222 
TABS,ioos:station:wmo:42043:1,2008-09-03T19:30:00Z,28.9818,-94.9186,1006.61,11111222 
TABS,ioos:station:wmo:42043:1,2008-09-03T20:00:00Z,28.9818,-94.9186,1006.39,11111222 
TABS,ioos:station:wmo:42043:1,2008-09-03T20:30:00Z,28.9818,-94.9186,1006.07,11111222 
TABS,ioos:station:wmo:42043:1,2008-09-03T21:00:00Z,28.9818,-94.9186,1005.77,11111222 
TABS,ioos:station:wmo:42043:1,2008-09-03T21:30:00Z,28.9818,-94.9186,1005.56,11111222 
TABS,ioos:station:wmo:42043:1,2008-09-03T22:00:00Z,28.9818,-94.9186,1005.44,11111222 
TABS,ioos:station:wmo:42043:1,2008-09-03T22:30:00Z,28.9818,-94.9186,1005.45,11111222 
TABS,ioos:station:wmo:42043:1,2008-09-03T23:00:00Z,28.9818,-94.9186,1005.55,11111222 
TABS,ioos:station:wmo:42043:1,2008-09-03T23:30:00Z,28.9818,-94.9186,1005.38,11111222 
TABS,ioos:station:wmo:42043:1,2008-09-04T00:00:00Z,28.9818,-94.9186,1005.54,11111222 
TABS,ioos:station:wmo:42043:1,2008-09-04T00:30:00Z,28.9818,-94.9186,1005.59,11111222 
TABS,ioos:station:wmo:42043:1,2008-09-04T01:00:00Z,28.9818,-94.9186,1005.88,11111222 
TABS,ioos:station:wmo:42043:1,2008-09-04T01:30:00Z,28.9818,-94.9186,1006.29,11111222 
TABS,ioos:station:wmo:42043:1,2008-09-04T02:00:00Z,28.9818,-94.9186,1006.82,11111222 
TABS,ioos:station:wmo:42043:1,2008-09-04T02:30:00Z,28.9818,-94.9186,1007.26,11111222 
TABS,ioos:station:wmo:42043:1,2008-09-04T03:00:00Z,28.9818,-94.9186,1007.51,11111222 
TABS,ioos:station:wmo:42043:1,2008-09-04T03:30:00Z,28.9818,-94.9186,1007.6,11111222 
TABS,ioos:station:wmo:42043:1,2008-09-04T04:00:00Z,28.9818,-94.9186,1007.55,11111222 
TABS,ioos:station:wmo:42043:1,2008-09-04T04:30:00Z,28.9818,-94.9186,1007.62,11111222 
TABS,ioos:station:wmo:42043:1,2008-09-04T05:00:00Z,28.9818,-94.9186,1007.74,11111222 
TABS,ioos:station:wmo:42043:1,2008-09-04T05:30:00Z,28.9818,-94.9186,1007.86,11111222 
TABS,ioos:station:wmo:42043:1,2008-09-04T06:00:00Z,28.9818,-94.9186,1007.87,11111222 
TABS,ioos:station:wmo:42043:1,2008-09-04T06:30:00Z,28.9818,-94.9186,1007.93,11111222 
TABS,ioos:station:wmo:42043:1,2008-09-04T07:00:00Z,28.9818,-94.9186,1007.83,11111222 
TABS,ioos:station:wmo:42043:1,2008-09-04T07:30:00Z,28.9818,-94.9186,1007.78,11111222 
TABS,ioos:station:wmo:42043:1,2008-09-04T08:00:00Z,28.9818,-94.9186,1007.59,11111222 
TABS,ioos:station:wmo:42043:1,2008-09-04T08:30:00Z,28.9818,-94.9186,1007.67,11111222 
TABS,ioos:station:wmo:42043:1,2008-09-04T09:00:00Z,28.9818,-94.9186,1007.85,11111222 
TABS,ioos:station:wmo:42043:1,2008-09-04T09:30:00Z,28.9818,-94.9186,1007.75,11111222 
TABS,ioos:station:wmo:42043:1,2008-09-04T10:00:00Z,28.9818,-94.9186,1007.83,11111222 
TABS,ioos:station:wmo:42043:1,2008-09-04T10:30:00Z,28.9818,-94.9186,1008.1,11111222 
TABS,ioos:station:wmo:42043:1,2008-09-04T11:00:00Z,28.9818,-94.9186,1008.39,11111222 
TABS,ioos:station:wmo:42043:1,2008-09-04T11:30:00Z,28.9818,-94.9186,1008.57,11111222 
TABS,ioos:station:wmo:42043:1,2008-09-04T12:00:00Z,28.9818,-94.9186,1008.86,11111222 
TABS,ioos:station:wmo:42043:1,2008-09-04T12:30:00Z,28.9818,-94.9186,1009.09,11111222 
TABS,ioos:station:wmo:42043:1,2008-09-04T13:00:00Z,28.9818,-94.9186,1009.3,11111222 
TABS,ioos:station:wmo:42043:1,2008-09-04T13:30:00Z,28.9818,-94.9186,1009.56,11111222 
TABS,ioos:station:wmo:42043:1,2008-09-04T14:00:00Z,28.9818,-94.9186,1009.69,11111222 
TABS,ioos:station:wmo:42043:1,2008-09-04T14:30:00Z,28.9818,-94.9186,1010.06,11111222 
TABS,ioos:station:wmo:42043:1,2008-09-04T15:00:00Z,28.9818,-94.9186,1010.36,11111222 
TABS,ioos:station:wmo:42043:1,2008-09-04T15:30:00Z,28.9818,-94.9186,1010.57,11111222 
TABS,ioos:station:wmo:42043:1,2008-09-04T16:00:00Z,28.9818,-94.9186,1010.62,11111222 
TABS,ioos:station:wmo:42043:1,2008-09-04T16:30:00Z,28.9818,-94.9186,1010.74,11111222 
TABS,ioos:station:wmo:42043:1,2008-09-04T17:00:00Z,28.9818,-94.9186,1010.2,11111222 
TABS,ioos:station:wmo:42043:1,2008-09-04T17:30:00Z,28.9818,-94.9186,1009.73,11111222 
TABS,ioos:station:wmo:42043:1,2008-09-04T18:00:00Z,28.9818,-94.9186,1009.72,11111222 
TABS,ioos:station:wmo:42043:1,2008-09-04T18:30:00Z,28.9818,-94.9186,1009.38,11111222 
TABS,ioos:station:wmo:42043:1,2008-09-04T19:00:00Z,28.9818,-94.9186,1009.03,11111222 
TABS,ioos:station:wmo:42043:1,2008-09-04T19:30:00Z,28.9818,-94.9186,1008.7,11111222 
TABS,ioos:station:wmo:42043:1,2008-09-04T20:00:00Z,28.9818,-94.9186,1008.14,11111222 
TABS,ioos:station:wmo:42043:1,2008-09-04T20:30:00Z,28.9818,-94.9186,1007.85,11111222 
TABS,ioos:station:wmo:42043:1,2008-09-04T21:00:00Z,28.9818,-94.9186,1007.68,11111222 
TABS,ioos:station:wmo:42043:1,2008-09-04T21:30:00Z,28.9818,-94.9186,1007.46,11111222 
TABS,ioos:station:wmo:42043:1,2008-09-04T22:00:00Z,28.9818,-94.9186,1007.41,11111222 
TABS,ioos:station:wmo:42043:1,2008-09-04T22:30:00Z,28.9818,-94.9186,1007.31,11111222 
TABS,ioos:station:wmo:42043:1,2008-09-04T23:00:00Z,28.9818,-94.9186,1007.29,11111222 
TABS,ioos:station:wmo:42043:1,2008-09-04T23:30:00Z,28.9818,-94.9186,1007.24,11111222 
TABS,ioos:station:wmo:42043:1,2008-09-05T00:00:00Z,28.9818,-94.9186,1007.5,11111222 
TABS,ioos:station:wmo:42043:1,2008-09-05T00:30:00Z,28.9818,-94.9186,1007.73,11111222 
TABS,ioos:station:wmo:42043:1,2008-09-05T01:00:00Z,28.9818,-94.9186,1007.86,11111222 
TABS,ioos:station:wmo:42043:1,2008-09-05T01:30:00Z,28.9818,-94.9186,1008.13,11111222 
TABS,ioos:station:wmo:42043:1,2008-09-05T02:00:00Z,28.9818,-94.9186,1008.41,11111222 
TABS,ioos:station:wmo:42043:1,2008-09-05T02:30:00Z,28.9818,-94.9186,1008.64,11111222 
TABS,ioos:station:wmo:42043:1,2008-09-05T03:00:00Z,28.9818,-94.9186,1008.77,11111222 
TABS,ioos:station:wmo:42043:1,2008-09-05T03:30:00Z,28.9818,-94.9186,1009.03,11111222 
TABS,ioos:station:wmo:42043:1,2008-09-05T04:00:00Z,28.9818,-94.9186,1009.26,11111222 
TABS,ioos:station:wmo:42043:1,2008-09-05T04:30:00Z,28.9818,-94.9186,1009.25,11111222 
TABS,ioos:station:wmo:42043:1,2008-09-05T05:00:00Z,28.9818,-94.9186,1009.26,11111222 
TABS,ioos:station:wmo:42043:1,2008-09-05T05:30:00Z,28.9818,-94.9186,1009.35,11111222 
TABS,ioos:station:wmo:42043:1,2008-09-05T06:00:00Z,28.9818,-94.9186,1009.35,11111222 
TABS,ioos:station:wmo:42043:1,2008-09-05T06:30:00Z,28.9818,-94.9186,1009.51,11111222 
TABS,ioos:station:wmo:42043:1,2008-09-05T07:00:00Z,28.9818,-94.9186,1009.56,11111222 
TABS,ioos:station:wmo:42043:1,2008-09-05T07:30:00Z,28.9818,-94.9186,1009.61,11111222 
TABS,ioos:station:wmo:42043:1,2008-09-05T08:00:00Z,28.9818,-94.9186,1009.66,11111222 
TABS,ioos:station:wmo:42043:1,2008-09-05T08:30:00Z,28.9818,-94.9186,1009.74,11111222 
TABS,ioos:station:wmo:42043:1,2008-09-05T09:00:00Z,28.9818,-94.9186,1009.76,11111222 
TABS,ioos:station:wmo:42043:1,2008-09-05T09:30:00Z,28.9818,-94.9186,1009.82,11111222 
TABS,ioos:station:wmo:42043:1,2008-09-05T10:00:00Z,28.9818,-94.9186,1009.93,11111222 
TABS,ioos:station:wmo:42043:1,2008-09-05T10:30:00Z,28.9818,-94.9186,1010.14,11111222 
TABS,ioos:station:wmo:42043:1,2008-09-05T11:00:00Z,28.9818,-94.9186,1010.3,11111222 
TABS,ioos:station:wmo:42043:1,2008-09-05T11:30:00Z,28.9818,-94.9186,1010.63,11111222 
TABS,ioos:station:wmo:42043:1,2008-09-05T12:00:00Z,28.9818,-94.9186,1010.99,11111222 
TABS,ioos:station:wmo:42043:1,2008-09-05T12:30:00Z,28.9818,-94.9186,1011.31,11111222 
TABS,ioos:station:wmo:42043:1,2008-09-05T13:00:00Z,28.9818,-94.9186,1011.53,11111222 
TABS,ioos:station:wmo:42043:1,2008-09-05T13:30:00Z,28.9818,-94.9186,1011.56,11111222 
TABS,ioos:station:wmo:42043:1,2008-09-05T14:00:00Z,28.9818,-94.9186,1011.59,11111222 
TABS,ioos:station:wmo:42043:1,2008-09-05T14:30:00Z,28.9818,-94.9186,1011.68,11111222 
TABS,ioos:station:wmo:42043:1,2008-09-05T15:00:00Z,28.9818,-94.9186,1012.19,11111222 
TABS,ioos:station:wmo:42043:1,2008-09-05T15:30:00Z,28.9818,-94.9186,1012.26,11111222 
TABS,ioos:station:wmo:42043:1,2008-09-05T16:00:00Z,28.9818,-94.9186,1012.32,11111222 
TABS,ioos:station:wmo:42043:1,2008-09-05T16:30:00Z,28.9818,-94.9186,1012.45,11111222 
TABS,ioos:station:wmo:42043:1,2008-09-05T17:00:00Z,28.9818,-94.9186,1012.37,11111222 
TABS,ioos:station:wmo:42043:1,2008-09-05T17:30:00Z,28.9818,-94.9186,1011.92,11111222 
TABS,ioos:station:wmo:42043:1,2008-09-05T18:00:00Z,28.9818,-94.9186,1011.85,11111222 
TABS,ioos:station:wmo:42043:1,2008-09-05T18:30:00Z,28.9818,-94.9186,1011.7,11111222 
TABS,ioos:station:wmo:42043:1,2008-09-05T19:00:00Z,28.9818,-94.9186,1011.6,11111222 
TABS,ioos:station:wmo:42043:1,2008-09-05T19:30:00Z,28.9818,-94.9186,1011.3,11111222 
TABS,ioos:station:wmo:42043:1,2008-09-05T20:00:00Z,28.9818,-94.9186,1010.95,11111222 
TABS,ioos:station:wmo:42043:1,2008-09-05T20:30:00Z,28.9818,-94.9186,1010.59,11111222 
TABS,ioos:station:wmo:42043:1,2008-09-05T21:00:00Z,28.9818,-94.9186,1010.59,11111222 
TABS,ioos:station:wmo:42043:1,2008-09-05T21:30:00Z,28.9818,-94.9186,1010.52,11111222 
TABS,ioos:station:wmo:42043:1,2008-09-05T22:00:00Z,28.9818,-94.9186,1010.52,11111222 
TABS,ioos:station:wmo:42043:1,2008-09-05T22:30:00Z,28.9818,-94.9186,1010.65,11111222 
TABS,ioos:station:wmo:42043:1,2008-09-05T23:00:00Z,28.9818,-94.9186,1010.68,11111222 
TABS,ioos:station:wmo:42043:1,2008-09-05T23:30:00Z,28.9818,-94.9186,1010.78,11111222 
TABS,ioos:station:wmo:42043:1,2008-09-06T00:00:00Z,28.9818,-94.9186,1010.95,11111222 
TABS,ioos:station:wmo:42043:1,2008-09-06T00:30:00Z,28.9818,-94.9186,1011.0,11111222 
TABS,ioos:station:wmo:42043:1,2008-09-06T01:00:00Z,28.9818,-94.9186,1011.18,11111222 
TABS,ioos:station:wmo:42043:1,2008-09-06T01:30:00Z,28.9818,-94.9186,1011.66,11111222 
TABS,ioos:station:wmo:42043:1,2008-09-06T02:00:00Z,28.9818,-94.9186,1012.09,11111222 
TABS,ioos:station:wmo:42043:1,2008-09-06T02:30:00Z,28.9818,-94.9186,1012.52,11111222 
TABS,ioos:station:wmo:42043:1,2008-09-06T03:00:00Z,28.9818,-94.9186,1012.56,11111222 
TABS,ioos:station:wmo:42043:1,2008-09-06T03:30:00Z,28.9818,-94.9186,1012.54,11111222 
TABS,ioos:station:wmo:42043:1,2008-09-06T04:00:00Z,28.9818,-94.9186,1012.45,11111222 
TABS,ioos:station:wmo:42043:1,2008-09-06T04:30:00Z,28.9818,-94.9186,1012.49,11111222 
TABS,ioos:station:wmo:42043:1,2008-09-06T05:00:00Z,28.9818,-94.9186,1012.55,11111222 
TABS,ioos:station:wmo:42043:1,2008-09-06T05:30:00Z,28.9818,-94.9186,1012.55,11111222 
TABS,ioos:station:wmo:42043:1,2008-09-06T06:00:00Z,28.9818,-94.9186,1012.66,11111222 
TABS,ioos:station:wmo:42043:1,2008-09-06T06:30:00Z,28.9818,-94.9186,1012.57,11111222 
TABS,ioos:station:wmo:42043:1,2008-09-06T07:00:00Z,28.9818,-94.9186,1012.47,11111222 
TABS,ioos:station:wmo:42043:1,2008-09-06T07:30:00Z,28.9818,-94.9186,1012.29,11111222 
TABS,ioos:station:wmo:42043:1,2008-09-06T08:00:00Z,28.9818,-94.9186,1012.25,11111222 
TABS,ioos:station:wmo:42043:1,2008-09-06T08:30:00Z,28.9818,-94.9186,1012.13,11111222 
TABS,ioos:station:wmo:42043:1,2008-09-06T09:00:00Z,28.9818,-94.9186,1012.08,11111222 
TABS,ioos:station:wmo:42043:1,2008-09-06T09:30:00Z,28.9818,-94.9186,1012.08,11111222 
TABS,ioos:station:wmo:42043:1,2008-09-06T10:00:00Z,28.9818,-94.9186,1012.19,11111222 
TABS,ioos:station:wmo:42043:1,2008-09-06T10:30:00Z,28.9818,-94.9186,1012.61,11111222 
TABS,ioos:station:wmo:42043:1,2008-09-06T11:00:00Z,28.9818,-94.9186,1012.76,11111222 
TABS,ioos:station:wmo:42043:1,2008-09-06T11:30:00Z,28.9818,-94.9186,1013.06,11111222 
TABS,ioos:station:wmo:42043:1,2008-09-06T12:00:00Z,28.9818,-94.9186,1013.38,11111222 
TABS,ioos:station:wmo:42043:1,2008-09-06T12:30:00Z,28.9818,-94.9186,1013.73,11111222 
TABS,ioos:station:wmo:42043:1,2008-09-06T13:00:00Z,28.9818,-94.9186,1013.99,11111222 
TABS,ioos:station:wmo:42043:1,2008-09-06T13:30:00Z,28.9818,-94.9186,1014.28,11111222 
TABS,ioos:station:wmo:42043:1,2008-09-06T14:00:00Z,28.9818,-94.9186,1014.53,11111222 
TABS,ioos:station:wmo:42043:1,2008-09-06T14:30:00Z,28.9818,-94.9186,1014.86,11111222 
TABS,ioos:station:wmo:42043:1,2008-09-06T15:00:00Z,28.9818,-94.9186,1015.03,11111222 
TABS,ioos:station:wmo:42043:1,2008-09-06T15:30:00Z,28.9818,-94.9186,1015.34,11111222 
TABS,ioos:station:wmo:42043:1,2008-09-06T16:00:00Z,28.9818,-94.9186,1015.35,11111222 
TABS,ioos:station:wmo:42043:1,2008-09-06T16:30:00Z,28.9818,-94.9186,1015.53,11111222 
TABS,ioos:station:wmo:42043:1,2008-09-06T17:00:00Z,28.9818,-94.9186,1015.33,11111222 
TABS,ioos:station:wmo:42043:1,2008-09-06T17:30:00Z,28.9818,-94.9186,1015.28,11111222 
TABS,ioos:station:wmo:42043:1,2008-09-06T18:00:00Z,28.9818,-94.9186,1015.04,11111222 
TABS,ioos:station:wmo:42043:1,2008-09-06T18:30:00Z,28.9818,-94.9186,1014.97,11111222 